Weather in Inegol

Turkey     40°04′41″N   29°30′42″E
temp.,
°C
wind,
m/s
gust,
m/s
humid.,
%
clouds,
%
prec.,
mm/h
press.,
hPa
HPBL,
m
3 august, tue
tue300:00+22sw22330 0.0 101413
03:00+22ssw22330 0.0 101314
06:00+22sw22310 0.0 101313
09:00+31nne11210 0.0 1013468
12:00+34nne45160 0.0 10122424
15:00+36nne65140 0.0 10113062
18:00+31n77300 0.0 10121240
21:00+22sw01570 0.0 101516
4 august, wed
wed400:00+21sw22510 0.0 101612
03:00+21ssw22400 0.0 101514
06:00+21ssw22340 0.0 101512
09:00+28nne21260 0.0 1015363
12:00+33nne32180 0.0 10141710
15:00+36nne54140 0.0 10123448
18:00+33n75230 0.0 10121773
21:00+24nw11440 0.0 101413
5 august, thu
thu500:00+23wsw11490 0.0 101512
03:00+23sw22410 0.0 101413
06:00+22w12310 0.0 101411
09:00+29nne25240 0.0 1013783
12:00+33nne56170 0.0 10122879
15:00+35nne56160 0.0 10103282
18:00+33nne66170 0.0 10092938
21:00+24sw11310 0.0 101011
6 august, fri
fri600:00+23ssw22310 0.0 101012
03:00+23ssw32290 0.0 100823
06:00+23ssw33300 0.0 100828
09:00+31s11200 0.0 1006457
12:00+38w02131 0.0 10043907
15:00+34n231577 0.0 10022520
18:00+29nnw6823100 0.1 1005391
21:00+24ese3535100 0.1 100677
7 august, sat
sat700:00+24s323397 0.0 100532
03:00+23ssw333396 0.0 100429
06:00+20nnw114043 0.0 100611
09:00+24n33530 0.0 1008595
12:00+28n43454 0.0 10081566
15:00+30n753952 0.4 10072129
18:00+25n785649 0.8 10101327
21:00+19nw22770 0.8 101447